START_TIME,STEP,MOV.,M29,t_acc.,H22,t_acc.,H26,t_acc.,H30,t_acc.
1981-08-29 12:00:32.520 ,5,0,0.,24.0,0.,24.0,0.,24.0,0.,24.0
1981-08-29 12:00:56.520 ,4,1,0.,24.0,0.,24.0,0.,24.0,0.,24.0
1981-08-29 12:01:20.520 ,4,0,0.,24.0,0.,24.0,0.,24.0,0.,24.0
1981-08-29 12:01:44.520 ,3,1,0.,24.0,0.,24.0,0.,24.0,0.,24.0
1981-08-29 12:02:08.520 ,3,0,0.,24.0,0.,24.0,0.,24.0,0.,24.0
1981-08-29 12:02:32.520 ,2,1,0.,24.0,0.,24.0,0.,24.0,0.,24.0
1981-08-29 12:02:56.520 ,2,0,0.,24.0,0.,24.0,0.,24.0,0.,24.0
1981-08-29 12:03:20.520 ,1,1,0.,24.0,0.,24.0,0.,24.0,0.,24.0
1981-08-29 12:03:44.520 ,1,0,0.,24.0,0.,24.0,0.,24.0,0.,24.0
1981-08-29 12:04:08.520 ,0,1,0.,24.0,0.,24.0,0.,24.0,0.,24.0
1981-08-29 12:04:32.520 ,0,0,0.,24.0,0.,24.0,0.,24.0,0.,24.0
1981-08-29 12:04:56.520 ,0,1,0.,24.0,0.,24.0,0.,24.0,0.,24.0
1981-08-29 12:05:20.520 ,0,0,0.,24.0,0.,24.0,0.,24.0,0.,24.0
1981-08-29 12:05:44.520 ,1,1,0.,24.0,0.,24.0,0.,24.0,0.,24.0
1981-08-29 12:06:08.520 ,1,0,0.,24.0,0.,24.0,0.,24.0,0.,24.0
1981-08-29 12:06:32.520 ,2,1,0.,24.0,0.,24.0,0.,24.0,0.,24.0
1981-08-29 12:06:56.520 ,2,0,0.,24.0,0.,24.0,0.,24.0,0.,24.0
1981-08-29 12:07:20.520 ,3,1,0.,24.0,0.,24.0,0.,24.0,0.,24.0
1981-08-29 12:07:44.520 ,3,0,0.,24.0,0.,24.0,0.,24.0,0.,24.0
1981-08-29 12:08:08.520 ,4,1,0.,24.0,0.,24.0,0.,24.0,0.,24.0
1981-08-29 12:08:32.520 ,4,0,0.,24.0,0.,24.0,0.,24.0,0.,24.0
1981-08-29 12:08:56.520 ,5,1,0.,24.0,0.,24.0,0.,24.0,0.,24.0
1981-08-29 12:09:20.520 ,5,0,0.,24.0,0.,24.0,0.,24.0,0.,24.0
1981-08-29 12:09:44.520 ,6,1,0.,24.0,0.,24.0,0.,24.0,0.,24.0
1981-08-29 12:10:08.520 ,6,0,0.,24.0,0.,24.0,0.,24.0,0.,24.0
1981-08-29 12:10:32.520 ,7,1,0.,24.0,0.,24.0,0.,24.0,0.,24.0
1981-08-29 12:10:56.520 ,7,0,0.,24.0,0.,24.0,0.,24.0,0.,24.0
1981-08-29 12:11:20.520 ,7,1,0.,24.0,0.,24.0,0.,24.0,0.,24.0
1981-08-29 12:11:44.520 ,6,1,0.,24.0,0.,24.0,0.,24.0,0.,24.0
1981-08-29 12:12:08.520 ,5,1,0.,24.0,0.,24.0,0.,24.0,0.,24.0
1981-08-29 12:12:32.520 ,4,1,0.,24.0,0.,24.0,0.,24.0,0.,24.0
1981-08-29 12:12:56.520 ,3,1,0.,24.0,0.,24.0,0.,24.0,0.,24.0
1981-08-29 12:13:20.520 ,2,1,0.,24.0,0.,24.0,0.,24.0,0.,24.0
1981-08-29 12:13:44.520 ,1,1,0.,24.0,0.,24.0,0.,24.0,0.,24.0
1981-08-29 12:14:08.520 ,0,1,0.,24.0,0.,24.0,0.,24.0,0.,24.0
1981-08-29 12:14:32.520 ,0,1,0.,24.0,0.,24.0,0.,24.0,0.,24.0
1981-08-29 12:14:56.520 ,1,1,0.,24.0,0.,24.0,0.,24.0,0.,24.0
1981-08-29 12:15:20.520 ,2,1,0.,24.0,0.,24.0,0.,24.0,0.,24.0
1981-08-29 12:15:44.520 ,3,1,0.,24.0,0.,24.0,0.,24.0,0.,24.0
1981-08-29 12:16:08.520 ,4,1,0.,24.0,0.,24.0,0.,24.0,0.,24.0
1981-08-29 12:16:32.520 ,5,1,0.,24.0,0.,24.0,0.,24.0,0.,24.0
1981-08-29 12:16:56.520 ,6,1,0.,24.0,0.,24.0,0.,24.0,0.,24.0
1981-08-29 12:17:20.520 ,7,1,0.,24.0,0.,24.0,0.,24.0,0.,24.0
1981-08-29 12:17:44.520 ,7,1,0.,24.0,0.,24.0,0.,24.0,0.,24.0
1981-08-29 12:18:08.520 ,7,0,0.,24.0,0.,24.0,0.,24.0,0.,24.0
1981-08-29 12:18:32.520 ,6,1,0.,24.0,0.,24.0,0.,24.0,0.,24.0
1981-08-29 12:18:56.520 ,6,0,0.,24.0,0.,24.0,0.,24.0,0.,24.0
1981-08-29 12:19:20.520 ,5,1,0.,24.0,0.,24.0,0.,24.0,0.,24.0
1981-08-29 12:19:44.520 ,5,0,0.,24.0,0.,24.0,0.,24.0,0.,24.0
1981-08-29 12:20:08.520 ,4,1,0.,24.0,0.,24.0,0.,24.0,0.,24.0
1981-08-29 12:20:32.520 ,4,0,0.,24.0,0.,24.0,0.,24.0,0.,24.0
1981-08-29 12:20:56.520 ,3,1,0.,24.0,0.,24.0,0.,24.0,0.,24.0
1981-08-29 12:21:20.520 ,3,0,0.,24.0,0.,24.0,0.,24.0,0.,24.0
1981-08-29 12:21:44.520 ,2,1,0.,24.0,0.,24.0,0.,24.0,0.,24.0
1981-08-29 12:22:08.520 ,2,0,0.,24.0,0.,24.0,0.,24.0,0.,24.0
1981-08-29 12:22:32.520 ,1,1,0.,24.0,0.,24.0,0.,24.0,0.,24.0
1981-08-29 12:22:56.520 ,1,0,0.,24.0,0.,24.0,0.,24.0,0.,24.0
1981-08-29 12:23:20.520 ,0,1,0.,24.0,0.,24.0,0.,24.0,0.,24.0
1981-08-29 12:23:44.520 ,0,0,0.,24.0,0.,24.0,0.,24.0,0.,24.0
1981-08-29 12:24:08.520 ,0,1,0.,24.0,0.,24.0,0.,24.0,0.,24.0
1981-08-29 12:24:32.520 ,0,0,0.,24.0,0.,24.0,0.,24.0,0.,24.0
1981-08-29 12:24:56.520 ,1,1,0.,24.0,0.,24.0,0.,24.0,0.,24.0
1981-08-29 12:25:20.520 ,0,0,0.,24.0,0.,24.0,0.,24.0,0.,24.0
1981-08-29 12:25:44.520 ,2,1,0.,24.0,0.,24.0,0.,24.0,0.,24.0
1981-08-29 12:26:08.520 ,2,0,0.,24.0,0.,24.0,0.,24.0,0.,24.0
1981-08-29 12:26:32.520 ,3,1,0.,24.0,0.,24.0,0.,24.0,0.,24.0
1981-08-29 12:26:56.520 ,3,0,0.,24.0,0.,24.0,0.,24.0,0.,24.0
1981-08-29 12:27:20.520 ,4,1,0.,24.0,0.,24.0,0.,24.0,0.,24.0
1981-08-29 12:27:44.520 ,4,0,0.,24.0,0.,24.0,0.,24.0,0.,24.0
1981-08-29 12:28:08.520 ,5,1,0.,24.0,0.,24.0,0.,24.0,0.,24.0
1981-08-29 12:28:32.520 ,5,0,0.,24.0,0.,24.0,0.,24.0,0.,24.0
1981-08-29 12:28:56.520 ,6,1,0.,24.0,0.,24.0,0.,24.0,0.,24.0
1981-08-29 12:29:20.520 ,6,0,1.,24.0,0.,24.0,0.,24.0,0.,24.0
1981-08-29 12:29:44.520 ,7,1,0.,24.0,0.,24.0,0.,24.0,0.,24.0
1981-08-29 12:30:08.520 ,7,0,0.,24.0,0.,24.0,0.,24.0,0.,24.0
1981-08-29 12:30:32.520 ,7,1,0.,24.0,0.,24.0,0.,24.0,0.,24.0
1981-08-29 12:30:56.520 ,6,1,0.,24.0,0.,24.0,0.,24.0,0.,24.0
1981-08-29 12:31:20.520 ,5,1,0.,24.0,0.,24.0,0.,24.0,0.,24.0
1981-08-29 12:31:44.520 ,4,1,0.,24.0,0.,24.0,0.,24.0,0.,24.0
1981-08-29 12:32:08.520 ,3,1,0.,24.0,0.,24.0,0.,24.0,0.,24.0
1981-08-29 12:32:32.520 ,2,1,0.,24.0,0.,24.0,0.,24.0,0.,24.0
1981-08-29 12:32:56.520 ,1,1,0.,24.0,0.,24.0,0.,24.0,0.,24.0
1981-08-29 12:33:20.520 ,0,1,0.,24.0,0.,24.0,0.,24.0,0.,24.0
1981-08-29 12:33:44.520 ,0,1,0.,24.0,0.,24.0,0.,24.0,0.,24.0
1981-08-29 12:34:08.520 ,1,1,0.,24.0,0.,24.0,0.,24.0,0.,24.0
1981-08-29 12:34:32.520 ,2,1,0.,24.0,0.,24.0,0.,24.0,0.,24.0
1981-08-29 12:34:56.520 ,3,1,0.,24.0,0.,24.0,0.,24.0,0.,24.0
1981-08-29 12:35:20.520 ,4,1,0.,24.0,0.,24.0,0.,24.0,0.,24.0
1981-08-29 12:35:44.520 ,5,1,0.,24.0,0.,24.0,0.,24.0,0.,24.0
1981-08-29 12:36:08.520 ,6,1,0.,24.0,0.,24.0,0.,24.0,0.,24.0
1981-08-29 12:36:32.520 ,7,1,0.,24.0,0.,24.0,0.,24.0,0.,24.0
1981-08-29 12:36:56.520 ,7,1,0.,24.0,0.,24.0,0.,24.0,0.,24.0
1981-08-29 12:37:20.520 ,7,0,0.,24.0,0.,24.0,0.,24.0,0.,24.0
1981-08-29 12:37:44.520 ,6,1,0.,24.0,0.,24.0,0.,24.0,0.,24.0
1981-08-29 12:38:08.520 ,6,0,0.,24.0,0.,24.0,0.,24.0,0.,24.0
1981-08-29 12:38:32.520 ,5,1,0.,24.0,0.,24.0,0.,24.0,0.,24.0
1981-08-29 12:38:56.520 ,5,0,0.,24.0,0.,24.0,0.,24.0,0.,24.0
1981-08-29 12:39:20.520 ,4,1,0.,24.0,0.,24.0,0.,24.0,0.,24.0
1981-08-29 12:39:44.520 ,4,0,0.,24.0,0.,24.0,0.,24.0,0.,24.0
1981-08-29 12:40:08.520 ,3,1,0.,24.0,0.,24.0,0.,24.0,0.,24.0
1981-08-29 12:40:32.520 ,3,0,0.,24.0,0.,24.0,0.,24.0,0.,24.0
1981-08-29 12:40:56.520 ,2,1,0.,24.0,0.,24.0,0.,24.0,0.,24.0
1981-08-29 12:41:20.520 ,2,0,0.,24.0,0.,24.0,0.,24.0,0.,24.0
1981-08-29 12:41:44.520 ,1,1,0.,24.0,0.,24.0,0.,24.0,0.,24.0
1981-08-29 12:42:08.520 ,1,0,0.,24.0,0.,24.0,0.,24.0,0.,24.0
1981-08-29 12:42:32.520 ,0,1,0.,24.0,0.,24.0,0.,24.0,0.,24.0
1981-08-29 12:42:56.520 ,0,0,0.,24.0,0.,24.0,0.,24.0,0.,24.0
1981-08-29 12:43:20.520 ,0,1,0.,24.0,0.,24.0,0.,24.0,0.,24.0
1981-08-29 12:43:44.520 ,0,0,,0,,0,,0,,0
1981-08-29 12:43:44.520 ,0,0,0.,24.0,0.,24.0,0.,24.0,0.,24.0
1981-08-29 12:44:08.520 ,1,1,0.,24.0,0.,24.0,0.,24.0,0.,24.0
1981-08-29 12:44:32.520 ,1,0,0.,24.0,0.,24.0,0.,24.0,0.,24.0
1981-08-29 12:44:56.520 ,2,1,0.,24.0,0.,24.0,0.,24.0,0.,24.0
1981-08-29 12:45:20.520 ,2,0,0.,24.0,0.,24.0,0.,24.0,0.,24.0
1981-08-29 12:45:44.520 ,3,1,0.,24.0,0.,24.0,0.,24.0,0.,24.0
1981-08-29 12:46:08.520 ,3,0,0.,24.0,0.,24.0,0.,24.0,0.,24.0
1981-08-29 12:46:32.520 ,4,1,0.,24.0,0.,24.0,0.,24.0,0.,24.0
1981-08-29 12:46:56.520 ,4,0,0.,24.0,0.,24.0,0.,24.0,0.,24.0
1981-08-29 12:47:20.520 ,5,1,0.,24.0,0.,24.0,0.,24.0,0.,24.0
1981-08-29 12:47:44.520 ,5,0,0.,24.0,0.,24.0,0.,24.0,0.,24.0
1981-08-29 12:48:08.520 ,6,1,0.,24.0,0.,24.0,0.,24.0,0.,24.0
1981-08-29 12:48:32.520 ,6,0,0.,24.0,0.,24.0,0.,24.0,0.,24.0
1981-08-29 12:48:56.520 ,7,1,0.,24.0,0.,24.0,0.,24.0,0.,24.0
1981-08-29 12:49:20.520 ,7,0,0.,24.0,0.,24.0,0.,24.0,0.,24.0
1981-08-29 12:49:44.520 ,7,1,0.,24.0,0.,24.0,0.,24.0,0.,24.0
1981-08-29 12:50:08.520 ,6,1,0.,24.0,0.,24.0,0.,24.0,0.,24.0
1981-08-29 12:50:32.520 ,5,1,0.,24.0,0.,24.0,0.,24.0,0.,24.0
1981-08-29 12:50:56.520 ,4,1,0.,24.0,0.,24.0,0.,24.0,0.,24.0
1981-08-29 12:51:20.520 ,3,1,0.,24.0,0.,24.0,0.,24.0,0.,24.0
1981-08-29 12:51:44.520 ,2,1,0.,24.0,0.,24.0,0.,24.0,0.,24.0
1981-08-29 12:52:08.520 ,1,1,0.,24.0,0.,24.0,0.,24.0,0.,24.0
1981-08-29 12:52:32.520 ,0,1,0.,24.0,0.,24.0,0.,24.0,0.,24.0
1981-08-29 12:52:56.520 ,0,1,0.,24.0,0.,24.0,0.,24.0,0.,24.0
1981-08-29 12:53:20.520 ,1,1,0.,24.0,0.,24.0,0.,24.0,0.,24.0
1981-08-29 12:53:44.520 ,2,1,0.,24.0,0.,24.0,0.,24.0,0.,24.0
1981-08-29 12:54:08.520 ,3,1,0.,24.0,0.,24.0,0.,24.0,0.,24.0
1981-08-29 12:54:32.520 ,4,1,0.,24.0,0.,24.0,0.,24.0,0.,24.0
1981-08-29 12:54:56.520 ,5,1,0.,24.0,0.,24.0,0.,24.0,0.,24.0
1981-08-29 12:55:20.520 ,6,1,0.,24.0,0.,24.0,0.,24.0,0.,24.0
1981-08-29 12:55:44.520 ,7,1,0.,24.0,0.,24.0,0.,24.0,0.,24.0
1981-08-29 12:56:08.520 ,7,1,0.,24.0,0.,24.0,0.,24.0,0.,24.0
1981-08-29 12:56:32.520 ,7,0,0.,24.0,0.,24.0,0.,24.0,0.,24.0
1981-08-29 12:56:56.520 ,6,1,0.,24.0,0.,24.0,0.,24.0,0.,24.0
1981-08-29 12:57:20.520 ,6,0,0.,24.0,0.,24.0,0.,24.0,0.,24.0
1981-08-29 12:57:44.520 ,5,1,0.,24.0,0.,24.0,0.,24.0,0.,24.0
1981-08-29 12:58:08.520 ,5,0,0.,24.0,0.,24.0,0.,24.0,0.,24.0
1981-08-29 12:58:32.520 ,4,1,0.,24.0,0.,24.0,0.,24.0,0.,24.0
1981-08-29 12:58:56.520 ,4,0,0.,24.0,0.,24.0,0.,24.0,0.,24.0
1981-08-29 12:59:20.520 ,3,1,0.,24.0,0.,24.0,0.,24.0,0.,24.0
1981-08-29 12:59:44.520 ,3,0,0.,24.0,0.,24.0,0.,24.0,0.,24.0
1981-08-29 13:00:08.520 ,2,1,0.,24.0,0.,24.0,0.,24.0,0.,24.0
1981-08-29 13:00:32.520 ,2,0,0.,24.0,0.,24.0,0.,24.0,0.,24.0
1981-08-29 13:00:56.520 ,1,1,0.,24.0,0.,24.0,0.,24.0,0.,24.0
1981-08-29 13:01:20.520 ,1,0,0.,24.0,0.,24.0,0.,24.0,0.,24.0
1981-08-29 13:01:44.520 ,0,1,0.,24.0,0.,24.0,0.,24.0,0.,24.0
1981-08-29 13:02:08.520 ,0,0,0.,24.0,0.,24.0,0.,24.0,0.,24.0
1981-08-29 13:02:32.520 ,0,1,0.,24.0,0.,24.0,0.,24.0,0.,24.0
1981-08-29 13:02:56.520 ,0,0,1.,24.0,0.,24.0,0.,24.0,0.,24.0
1981-08-29 13:03:20.520 ,1,1,0.,24.0,0.,24.0,0.,24.0,0.,24.0
1981-08-29 13:03:44.520 ,1,0,0.,24.0,0.,24.0,0.,24.0,0.,24.0
1981-08-29 13:04:08.520 ,2,1,0.,24.0,0.,24.0,0.,24.0,0.,24.0
1981-08-29 13:04:32.520 ,2,0,0.,24.0,0.,24.0,0.,24.0,0.,24.0
1981-08-29 13:04:56.520 ,3,1,0.,24.0,0.,24.0,0.,24.0,0.,24.0
1981-08-29 13:05:20.520 ,3,0,0.,24.0,0.,24.0,0.,24.0,0.,24.0
1981-08-29 13:05:44.520 ,4,1,0.,24.0,0.,24.0,0.,24.0,0.,24.0
1981-08-29 13:06:08.520 ,4,0,0.,24.0,0.,24.0,0.,24.0,0.,24.0
1981-08-29 13:06:32.520 ,5,1,0.,24.0,0.,24.0,0.,24.0,0.,24.0
1981-08-29 13:06:56.520 ,5,0,0.,24.0,0.,24.0,0.,24.0,0.,24.0
1981-08-29 13:07:20.520 ,6,1,0.,24.0,0.,24.0,0.,24.0,0.,24.0
1981-08-29 13:07:44.520 ,6,0,0.,24.0,0.,24.0,0.,24.0,0.,24.0
1981-08-29 13:08:08.520 ,7,1,0.,24.0,0.,24.0,0.,24.0,0.,24.0
1981-08-29 13:08:32.520 ,7,0,0.,24.0,0.,24.0,0.,24.0,0.,24.0
1981-08-29 13:08:56.520 ,7,1,0.,24.0,0.,24.0,0.,24.0,0.,24.0
1981-08-29 13:09:20.520 ,6,1,0.,24.0,0.,24.0,0.,24.0,0.,24.0
1981-08-29 13:09:44.520 ,5,1,0.,24.0,0.,24.0,0.,24.0,0.,24.0
1981-08-29 13:10:08.520 ,4,1,0.,24.0,0.,24.0,0.,24.0,0.,24.0
1981-08-29 13:10:32.520 ,3,1,0.,24.0,0.,24.0,0.,24.0,0.,24.0
1981-08-29 13:10:56.520 ,2,1,0.,24.0,0.,24.0,0.,24.0,0.,24.0
1981-08-29 13:11:20.520 ,1,1,0.,24.0,0.,24.0,0.,24.0,0.,24.0
1981-08-29 13:11:44.520 ,0,1,0.,24.0,0.,24.0,0.,24.0,0.,24.0
1981-08-29 13:12:08.520 ,0,1,0.,24.0,0.,24.0,0.,24.0,0.,24.0
1981-08-29 13:12:32.520 ,1,1,0.,24.0,0.,24.0,0.,24.0,0.,24.0
1981-08-29 13:12:56.520 ,2,1,0.,24.0,0.,24.0,0.,24.0,0.,24.0
1981-08-29 13:13:20.520 ,3,1,0.,24.0,0.,24.0,0.,24.0,0.,24.0
1981-08-29 13:13:44.520 ,4,1,0.,24.0,0.,24.0,0.,24.0,0.,24.0
1981-08-29 13:14:08.520 ,5,1,0.,24.0,0.,24.0,0.,24.0,0.,24.0
1981-08-29 13:14:32.520 ,6,1,0.,24.0,0.,24.0,0.,24.0,0.,24.0
1981-08-29 13:14:56.520 ,7,1,0.,24.0,0.,24.0,0.,24.0,0.,24.0
1981-08-29 13:15:20.520 ,7,1,0.,24.0,0.,24.0,0.,24.0,0.,24.0
1981-08-29 13:15:44.520 ,7,0,0.,24.0,0.,24.0,0.,24.0,0.,24.0
1981-08-29 13:16:08.520 ,6,1,0.,24.0,0.,24.0,0.,24.0,0.,24.0
1981-08-29 13:16:32.520 ,6,0,0.,24.0,0.,24.0,0.,24.0,0.,24.0
1981-08-29 13:16:56.520 ,5,1,0.,24.0,0.,24.0,0.,24.0,0.,24.0
1981-08-29 13:17:20.520 ,5,0,0.,24.0,0.,24.0,0.,24.0,0.,24.0
1981-08-29 13:17:44.520 ,4,1,0.,24.0,0.,24.0,0.,24.0,0.,24.0
1981-08-29 13:18:08.520 ,4,0,0.,24.0,0.,24.0,0.,24.0,0.,24.0
1981-08-29 13:18:32.520 ,3,1,0.,24.0,0.,24.0,0.,24.0,0.,24.0
1981-08-29 13:18:56.520 ,3,0,0.,24.0,0.,24.0,0.,24.0,0.,24.0
1981-08-29 13:19:20.520 ,2,1,0.,24.0,0.,24.0,0.,24.0,0.,24.0
1981-08-29 13:19:44.520 ,2,0,0.,24.0,0.,24.0,0.,24.0,0.,24.0
1981-08-29 13:20:08.520 ,1,1,0.,24.0,0.,24.0,0.,24.0,0.,24.0
1981-08-29 13:20:32.520 ,1,0,0.,24.0,0.,24.0,0.,24.0,0.,24.0
1981-08-29 13:20:56.520 ,0,1,0.,24.0,0.,24.0,0.,24.0,0.,24.0
1981-08-29 13:21:20.520 ,0,0,0.,24.0,0.,24.0,0.,24.0,0.,24.0
1981-08-29 13:21:44.520 ,0,1,0.,24.0,0.,24.0,0.,24.0,0.,24.0
1981-08-29 13:22:08.520 ,0,0,0.,24.0,0.,24.0,0.,24.0,0.,24.0
1981-08-29 13:22:32.520 ,1,1,0.,24.0,0.,24.0,0.,24.0,0.,24.0
1981-08-29 13:22:56.520 ,1,0,0.,24.0,0.,24.0,0.,24.0,0.,24.0
1981-08-29 13:23:20.520 ,2,1,0.,24.0,0.,24.0,0.,24.0,0.,24.0
1981-08-29 13:23:44.520 ,2,0,0.,24.0,0.,24.0,0.,24.0,0.,24.0
1981-08-29 13:24:08.520 ,3,1,0.,24.0,0.,24.0,0.,24.0,0.,24.0
1981-08-29 13:24:32.520 ,3,0,0.,24.0,0.,24.0,0.,24.0,0.,24.0
1981-08-29 13:24:56.520 ,4,1,0.,24.0,0.,24.0,0.,24.0,0.,24.0
1981-08-29 13:25:20.520 ,4,0,1.,24.0,0.,24.0,0.,24.0,0.,24.0
1981-08-29 13:25:44.520 ,5,1,0.,24.0,0.,24.0,0.,24.0,0.,24.0
1981-08-29 13:26:08.520 ,5,0,0.,24.0,0.,24.0,0.,24.0,0.,24.0
1981-08-29 13:26:32.520 ,6,1,0.,24.0,0.,24.0,0.,24.0,0.,24.0
1981-08-29 13:26:56.520 ,6,0,0.,24.0,0.,24.0,0.,24.0,0.,24.0
1981-08-29 13:27:20.520 ,7,1,0.,24.0,0.,24.0,0.,24.0,0.,24.0
1981-08-29 13:27:44.520 ,7,0,0.,24.0,0.,24.0,0.,24.0,0.,24.0
1981-08-29 13:28:08.520 ,7,1,0.,24.0,0.,24.0,0.,24.0,0.,24.0
1981-08-29 13:28:32.520 ,6,1,0.,24.0,0.,24.0,0.,24.0,0.,24.0
1981-08-29 13:28:56.520 ,5,1,1.,24.0,0.,24.0,0.,24.0,0.,24.0
1981-08-29 13:29:20.520 ,4,1,0.,24.0,0.,24.0,0.,24.0,0.,24.0
1981-08-29 13:29:44.520 ,3,1,0.,24.0,0.,24.0,0.,24.0,0.,24.0
1981-08-29 13:30:08.520 ,2,1,0.,24.0,0.,24.0,0.,24.0,0.,24.0
1981-08-29 13:30:32.520 ,1,1,0.,24.0,0.,24.0,0.,24.0,0.,24.0
1981-08-29 13:30:56.520 ,0,1,0.,24.0,0.,24.0,0.,24.0,0.,24.0
1981-08-29 13:31:20.520 ,0,1,0.,24.0,0.,24.0,0.,24.0,0.,24.0
1981-08-29 13:31:44.520 ,1,1,0.,24.0,0.,24.0,0.,24.0,0.,24.0
1981-08-29 13:32:08.520 ,2,1,0.,24.0,0.,24.0,0.,24.0,0.,24.0
1981-08-29 13:32:32.520 ,3,1,0.,24.0,0.,24.0,0.,24.0,0.,24.0
1981-08-29 13:32:56.520 ,4,1,0.,24.0,0.,24.0,0.,24.0,0.,24.0
1981-08-29 13:33:20.520 ,0,0,,0,,0,,0,,0
1981-08-29 13:33:44.520 ,0,0,0.,24.0,0.,24.0,0.,24.0,0.,24.0
1981-08-29 13:34:08.520 ,7,1,0.,24.0,0.,24.0,0.,24.0,0.,24.0
1981-08-29 13:34:32.520 ,7,1,0.,24.0,0.,24.0,0.,24.0,0.,24.0
1981-08-29 13:34:56.520 ,7,0,0.,24.0,0.,24.0,0.,24.0,0.,24.0
1981-08-29 13:35:20.520 ,6,1,0.,24.0,0.,24.0,0.,24.0,0.,24.0
1981-08-29 13:35:44.520 ,6,0,0.,24.0,0.,24.0,0.,24.0,0.,24.0
1981-08-29 13:36:08.520 ,5,1,0.,24.0,0.,24.0,0.,24.0,0.,24.0
1981-08-29 13:36:32.520 ,5,0,0.,24.0,0.,24.0,0.,24.0,0.,24.0
1981-08-29 13:36:56.520 ,4,1,0.,24.0,0.,24.0,0.,24.0,0.,24.0
1981-08-29 13:37:20.520 ,4,0,0.,24.0,0.,24.0,0.,24.0,0.,24.0
1981-08-29 13:37:44.520 ,3,1,0.,24.0,0.,24.0,0.,24.0,0.,24.0
1981-08-29 13:38:08.520 ,3,0,0.,24.0,0.,24.0,0.,24.0,0.,24.0
1981-08-29 13:38:32.520 ,2,1,0.,24.0,0.,24.0,0.,24.0,0.,24.0
1981-08-29 13:38:56.520 ,2,0,0.,24.0,0.,24.0,0.,24.0,0.,24.0
1981-08-29 13:39:20.520 ,1,1,0.,24.0,0.,24.0,0.,24.0,0.,24.0
1981-08-29 13:39:44.520 ,1,0,0.,24.0,0.,24.0,0.,24.0,0.,24.0
1981-08-29 13:40:08.520 ,0,1,0.,24.0,0.,24.0,0.,24.0,0.,24.0
1981-08-29 13:40:32.520 ,0,0,0.,24.0,0.,24.0,0.,24.0,0.,24.0
1981-08-29 13:40:56.520 ,0,1,0.,24.0,0.,24.0,0.,24.0,0.,24.0
1981-08-29 13:41:20.520 ,0,0,0.,24.0,0.,24.0,0.,24.0,0.,24.0
1981-08-29 13:41:44.520 ,1,1,0.,24.0,0.,24.0,0.,24.0,0.,24.0
1981-08-29 13:42:08.520 ,1,0,0.,24.0,0.,24.0,0.,24.0,0.,24.0
1981-08-29 13:42:32.520 ,2,1,0.,24.0,0.,24.0,0.,24.0,0.,24.0
1981-08-29 13:42:56.520 ,2,0,0.,24.0,0.,24.0,0.,24.0,0.,24.0
1981-08-29 13:43:20.520 ,3,1,0.,24.0,0.,24.0,0.,24.0,0.,24.0
1981-08-29 13:43:44.520 ,3,0,0.,24.0,0.,24.0,0.,24.0,0.,24.0
1981-08-29 13:44:08.520 ,4,1,0.,24.0,0.,24.0,0.,24.0,0.,24.0
1981-08-29 13:44:32.520 ,4,0,0.,24.0,0.,24.0,0.,24.0,0.,24.0
1981-08-29 13:44:56.520 ,5,1,0.,24.0,0.,24.0,0.,24.0,0.,24.0
1981-08-29 13:45:20.520 ,5,0,0.,24.0,0.,24.0,0.,24.0,0.,24.0
1981-08-29 13:45:44.520 ,6,1,0.,24.0,0.,24.0,0.,24.0,0.,24.0
1981-08-29 13:46:08.520 ,6,0,0.,24.0,0.,24.0,0.,24.0,0.,24.0
1981-08-29 13:46:32.520 ,7,1,0.,24.0,0.,24.0,0.,24.0,0.,24.0
1981-08-29 13:46:56.520 ,7,0,0.,24.0,0.,24.0,0.,24.0,0.,24.0
1981-08-29 13:47:20.520 ,7,1,0.,24.0,0.,24.0,0.,24.0,0.,24.0
1981-08-29 13:47:44.520 ,6,1,0.,24.0,0.,24.0,0.,24.0,0.,24.0
1981-08-29 13:48:08.520 ,5,1,0.,24.0,0.,24.0,0.,24.0,0.,24.0
1981-08-29 13:48:32.520 ,4,1,0.,24.0,0.,24.0,0.,24.0,0.,24.0
1981-08-29 13:48:56.520 ,3,1,0.,24.0,0.,24.0,0.,24.0,0.,24.0
1981-08-29 13:49:20.520 ,2,1,0.,24.0,0.,24.0,0.,24.0,0.,24.0
1981-08-29 13:49:44.520 ,1,1,0.,24.0,0.,24.0,0.,24.0,0.,24.0
1981-08-29 13:50:08.520 ,0,1,0.,24.0,0.,24.0,0.,24.0,0.,24.0
1981-08-29 13:50:32.510 ,0,1,0.,24.0,0.,24.0,0.,24.0,0.,24.0
1981-08-29 13:50:56.510 ,1,1,0.,24.0,0.,24.0,0.,24.0,0.,24.0
1981-08-29 13:51:20.510 ,2,1,0.,24.0,0.,24.0,0.,24.0,0.,24.0
1981-08-29 13:51:44.510 ,3,1,0.,24.0,0.,24.0,0.,24.0,0.,24.0
1981-08-29 13:52:08.510 ,4,1,0.,24.0,0.,24.0,0.,24.0,0.,24.0
1981-08-29 13:52:32.510 ,5,1,0.,24.0,0.,24.0,0.,24.0,0.,24.0
1981-08-29 13:52:56.510 ,6,1,0.,24.0,0.,24.0,0.,24.0,0.,24.0
1981-08-29 13:53:20.510 ,7,1,0.,24.0,0.,24.0,0.,24.0,0.,24.0
1981-08-29 13:53:44.510 ,7,1,0.,24.0,0.,24.0,0.,24.0,0.,24.0
1981-08-29 13:54:08.510 ,7,0,0.,24.0,0.,24.0,0.,24.0,0.,24.0
1981-08-29 13:54:32.510 ,6,1,0.,24.0,0.,24.0,0.,24.0,0.,24.0
1981-08-29 13:54:56.510 ,6,0,0.,24.0,0.,24.0,0.,24.0,0.,24.0
1981-08-29 13:55:20.510 ,5,1,0.,24.0,0.,24.0,0.,24.0,0.,24.0
1981-08-29 13:55:44.510 ,5,0,0.,24.0,0.,24.0,0.,24.0,0.,24.0
1981-08-29 13:56:08.510 ,4,1,0.,24.0,0.,24.0,0.,24.0,0.,24.0
1981-08-29 13:56:32.510 ,4,0,0.,24.0,0.,24.0,0.,24.0,0.,24.0
1981-08-29 13:56:56.510 ,3,1,0.,24.0,0.,24.0,0.,24.0,0.,24.0
1981-08-29 13:57:20.510 ,3,0,0.,24.0,0.,24.0,0.,24.0,0.,24.0
1981-08-29 13:57:44.510 ,2,1,0.,24.0,0.,24.0,0.,24.0,0.,24.0
1981-08-29 13:58:08.510 ,2,0,0.,24.0,0.,24.0,0.,24.0,0.,24.0
1981-08-29 13:58:32.510 ,1,1,0.,24.0,0.,24.0,0.,24.0,0.,24.0
1981-08-29 13:58:56.510 ,1,0,0.,24.0,0.,24.0,0.,24.0,0.,24.0
1981-08-29 13:59:20.510 ,0,1,0.,24.0,0.,24.0,0.,24.0,0.,24.0
1981-08-29 13:59:44.510 ,0,0,0.,24.0,0.,24.0,0.,24.0,0.,24.0
1981-08-29 14:00:08.510 ,0,1,0.,24.0,0.,24.0,0.,24.0,0.,24.0
1981-08-29 14:00:32.520 ,0,0,0.,24.0,0.,24.0,0.,24.0,0.,24.0
1981-08-29 14:00:56.520 ,1,1,0.,24.0,0.,24.0,0.,24.0,0.,24.0
1981-08-29 14:01:20.520 ,1,0,0.,24.0,0.,24.0,0.,24.0,0.,24.0
1981-08-29 14:01:44.520 ,2,1,0.,24.0,0.,24.0,0.,24.0,0.,24.0
1981-08-29 14:02:08.510 ,2,0,0.,24.0,0.,24.0,0.,24.0,0.,24.0
1981-08-29 14:02:32.520 ,3,1,0.,24.0,0.,24.0,0.,24.0,0.,24.0
1981-08-29 14:02:56.520 ,3,0,0.,24.0,0.,24.0,0.,24.0,0.,24.0
1981-08-29 14:03:20.520 ,4,1,0.,24.0,0.,24.0,0.,24.0,0.,24.0
1981-08-29 14:03:44.520 ,4,0,0.,24.0,0.,24.0,0.,24.0,0.,24.0
1981-08-29 14:04:08.520 ,5,1,0.,24.0,0.,24.0,0.,24.0,0.,24.0
1981-08-29 14:04:32.510 ,5,0,0.,24.0,0.,24.0,0.,24.0,0.,24.0
1981-08-29 14:04:56.510 ,6,1,0.,24.0,0.,24.0,0.,24.0,0.,24.0
1981-08-29 14:05:20.510 ,6,0,0.,24.0,0.,24.0,0.,24.0,0.,24.0
1981-08-29 14:05:44.510 ,7,1,0.,24.0,0.,24.0,0.,24.0,0.,24.0
1981-08-29 14:06:08.510 ,7,0,0.,24.0,0.,24.0,0.,24.0,0.,24.0
1981-08-29 14:06:32.510 ,7,1,0.,24.0,0.,24.0,0.,24.0,0.,24.0
1981-08-29 14:06:56.510 ,6,1,0.,24.0,0.,24.0,0.,24.0,0.,24.0
1981-08-29 14:07:20.510 ,5,1,0.,24.0,0.,24.0,0.,24.0,0.,24.0
1981-08-29 14:07:44.510 ,4,1,0.,24.0,0.,24.0,0.,24.0,0.,24.0
1981-08-29 14:08:08.510 ,3,1,0.,24.0,0.,24.0,0.,24.0,0.,24.0
1981-08-29 14:08:32.510 ,2,1,0.,24.0,0.,24.0,0.,24.0,0.,24.0
1981-08-29 14:08:56.510 ,1,1,0.,24.0,0.,24.0,0.,24.0,0.,24.0
1981-08-29 14:09:20.510 ,0,1,0.,24.0,0.,24.0,0.,24.0,0.,24.0
1981-08-29 14:09:44.510 ,0,1,0.,24.0,0.,24.0,0.,24.0,0.,24.0
1981-08-29 14:10:08.510 ,1,1,0.,24.0,0.,24.0,0.,24.0,0.,24.0
1981-08-29 14:10:32.510 ,2,1,0.,24.0,0.,24.0,0.,24.0,0.,24.0
1981-08-29 14:10:56.510 ,3,1,0.,24.0,0.,24.0,0.,24.0,0.,24.0
1981-08-29 14:11:20.510 ,4,1,0.,24.0,0.,24.0,0.,24.0,0.,24.0
1981-08-29 14:11:44.510 ,5,1,0.,24.0,0.,24.0,0.,24.0,0.,24.0
1981-08-29 14:12:08.510 ,6,1,0.,24.0,0.,24.0,0.,24.0,0.,24.0
1981-08-29 14:12:32.510 ,7,1,0.,24.0,0.,24.0,0.,24.0,0.,24.0
1981-08-29 14:12:56.510 ,7,1,0.,24.0,0.,24.0,0.,24.0,0.,24.0
1981-08-29 14:13:20.510 ,7,0,0.,24.0,0.,24.0,0.,24.0,0.,24.0
1981-08-29 14:13:44.510 ,6,1,0.,24.0,0.,24.0,0.,24.0,0.,24.0
1981-08-29 14:14:08.510 ,6,0,0.,24.0,0.,24.0,0.,24.0,0.,24.0
1981-08-29 14:14:32.510 ,5,1,0.,24.0,0.,24.0,0.,24.0,0.,24.0
1981-08-29 14:14:56.510 ,5,0,0.,24.0,0.,24.0,0.,24.0,0.,24.0
1981-08-29 14:15:20.510 ,4,1,0.,24.0,0.,24.0,0.,24.0,0.,24.0
1981-08-29 14:15:44.510 ,4,0,0.,24.0,0.,24.0,0.,24.0,0.,24.0
1981-08-29 14:16:08.510 ,3,1,0.,24.0,0.,24.0,0.,24.0,0.,24.0
1981-08-29 14:16:32.510 ,3,0,0.,24.0,0.,24.0,0.,24.0,0.,24.0
1981-08-29 14:16:56.510 ,2,1,0.,24.0,0.,24.0,0.,24.0,0.,24.0
1981-08-29 14:17:20.510 ,2,0,0.,24.0,0.,24.0,0.,24.0,0.,24.0
1981-08-29 14:17:44.510 ,1,1,0.,24.0,0.,24.0,0.,24.0,0.,24.0
1981-08-29 14:18:08.510 ,1,0,0.,24.0,0.,24.0,0.,24.0,0.,24.0
1981-08-29 14:18:32.510 ,0,1,0.,24.0,0.,24.0,0.,24.0,0.,24.0
1981-08-29 14:18:56.510 ,0,0,0.,24.0,0.,24.0,0.,24.0,0.,24.0
1981-08-29 14:19:20.510 ,0,1,0.,24.0,0.,24.0,0.,24.0,0.,24.0
1981-08-29 14:19:44.510 ,0,0,0.,24.0,0.,24.0,0.,24.0,0.,24.0
1981-08-29 14:20:08.510 ,1,1,0.,24.0,0.,24.0,0.,24.0,0.,24.0
1981-08-29 14:20:32.510 ,1,0,0.,24.0,0.,24.0,0.,24.0,0.,24.0
1981-08-29 14:20:56.510 ,2,1,0.,24.0,0.,24.0,0.,24.0,0.,24.0
1981-08-29 14:21:20.510 ,2,0,0.,24.0,0.,24.0,0.,24.0,0.,24.0
1981-08-29 14:21:44.510 ,3,1,0.,24.0,0.,24.0,0.,24.0,0.,24.0
1981-08-29 14:22:08.510 ,3,0,0.,24.0,0.,24.0,0.,24.0,0.,24.0
1981-08-29 14:22:32.510 ,4,1,0.,24.0,0.,24.0,0.,24.0,0.,24.0
1981-08-29 14:22:56.510 ,4,0,0.,24.0,0.,24.0,0.,24.0,0.,24.0
1981-08-29 14:23:20.510 ,5,1,0.,24.0,0.,24.0,0.,24.0,0.,24.0
1981-08-29 14:23:44.510 ,5,0,0.,24.0,0.,24.0,0.,24.0,0.,24.0
1981-08-29 14:24:08.510 ,6,1,0.,24.0,0.,24.0,0.,24.0,0.,24.0
1981-08-29 14:24:32.510 ,6,0,0.,24.0,0.,24.0,0.,24.0,0.,24.0
1981-08-29 14:24:56.510 ,7,1,0.,24.0,0.,24.0,0.,24.0,0.,24.0
1981-08-29 14:25:20.510 ,7,0,0.,24.0,0.,24.0,0.,24.0,0.,24.0
1981-08-29 14:25:44.510 ,7,1,0.,24.0,0.,24.0,0.,24.0,0.,24.0
1981-08-29 14:26:08.510 ,6,1,0.,24.0,0.,24.0,0.,24.0,0.,24.0
1981-08-29 14:26:32.510 ,5,1,0.,24.0,0.,24.0,0.,24.0,0.,24.0
1981-08-29 14:26:56.510 ,4,1,0.,24.0,0.,24.0,0.,24.0,0.,24.0
1981-08-29 14:27:20.510 ,3,1,0.,24.0,0.,24.0,0.,24.0,0.,24.0
1981-08-29 14:27:44.510 ,2,1,0.,24.0,0.,24.0,0.,24.0,0.,24.0
1981-08-29 14:28:08.510 ,1,1,0.,24.0,0.,24.0,0.,24.0,0.,24.0
1981-08-29 14:28:32.510 ,0,1,0.,24.0,0.,24.0,0.,24.0,0.,24.0
1981-08-29 14:28:56.510 ,0,1,0.,24.0,0.,24.0,0.,24.0,0.,24.0
1981-08-29 14:29:20.510 ,1,1,0.,24.0,0.,24.0,0.,24.0,0.,24.0
1981-08-29 14:29:44.510 ,2,1,0.,24.0,0.,24.0,0.,24.0,0.,24.0
1981-08-29 14:30:08.510 ,3,1,1.,24.0,0.,24.0,0.,24.0,0.,24.0
1981-08-29 14:30:32.510 ,4,1,0.,24.0,0.,24.0,0.,24.0,0.,24.0
1981-08-29 14:30:56.510 ,5,1,0.,24.0,0.,24.0,0.,24.0,0.,24.0
1981-08-29 14:31:20.510 ,6,1,0.,24.0,0.,24.0,0.,24.0,0.,24.0
1981-08-29 14:31:44.510 ,7,1,0.,24.0,0.,24.0,0.,24.0,0.,24.0
1981-08-29 14:32:08.510 ,7,1,0.,24.0,0.,24.0,0.,24.0,0.,24.0
1981-08-29 14:32:32.510 ,7,0,0.,24.0,0.,24.0,0.,24.0,0.,24.0
1981-08-29 14:32:56.510 ,6,1,0.,24.0,0.,24.0,0.,24.0,0.,24.0
1981-08-29 14:34:32.510 ,0,0,0.,24.0,0.,24.0,0.,24.0,0.,24.0
1981-08-29 14:34:56.510 ,0,0,0.,24.0,0.,24.0,0.,24.0,0.,24.0
1981-08-29 14:35:20.510 ,3,1,0.,24.0,0.,24.0,0.,24.0,0.,24.0